Retour au catalogue

METEOR 2-17 DEB

ActifPO
NORAD 29299·DEBRIS·🇷🇺 Russia

Lancé Jan 30, 1988 depuis Plesetsk Cosmodrome

Loading…

Prochains Passages (prochaines 24 heures)

TLE

FraisSource: Space-Track

Époque: Sep 13, 2026, 01:12 UTC

1 29299U 88005N   26256.05067590  .00002003  00000-0  11849-2 0  9995
2 29299  82.5337 171.1574 0032571 300.8311  58.9658 14.07035416696183

Suivez METEOR 2-17 DEB en temps réel avec AllMySat

Download on the App Store